Sanford, ME

5:26 AM EDT on August 20, 2019 (GMT -0400)
Sanford Regional

Weather History for KSFM - July, 2019

Change the Weather History Date:

Sunday, July 21, 2019

  Actual Average Record
Temperature  
Mean Temperature 83 °F -  
Max Temperature 93 °F 77 °F 96 °F (2011)
Min Temperature 73 °F 55 °F 44 °F (1999)
Cooling Degree Days 18    
Growing Degree Days 33 (Base 50)    
Moisture  
Dew Point 72 °F    
Average Humidity 69    
Maximum Humidity 94    
Minimum Humidity 45    
Precipitation  
Precipitation 0.00 in - - ()
Sea Level Pressure  
Sea Level Pressure 29.70 in    
Wind  
Wind Speed 7 mph (West)    
Max Wind Speed 16 mph    
Max Gust Speed 22 mph    
Visibility 10 miles    
Events      
Averages and records for this station are not official NWS values.
T = Trace of Precipitation, MM = Missing Value Source: NWS Daily Summary

Daily Weather History Graph

Daily Weather History Graph

Search for Another Location

Airport or City:

Astronomy

Jul. 21, 2019 Rise Set
Actual Time 5:21 AM EDT 8:16 PM EDT
Civil Twilight 4:47 AM EDT 8:50 PM EDT
Nautical Twilight 4:04 AM EDT 9:33 PM EDT
Astronomical Twilight 3:13 AM EDT 10:23 PM EDT
Moon 11:02 PM EDT (7/21) 9:44 AM EDT (7/21)
Length of Visible Light 16h 02m
Length of Day
14h 55m
Waning Gibbous, 80% of the Moon is Illuminated
Jul 21
Waning Gibbous
Jul 24
Last Quarter
Jul 31
New
Aug 7
First Quarter
Aug 15
Full

Hourly Weather History & Observations

Time (EDT) Temp. Heat Index Dew Point Humidity Pressure Visibility Wind Dir Wind Speed Gust Speed Precip Events Conditions
12:56 AM 79.0 °F - 73.9 °F 84% 29.69 in 10.0 mi SW 3.5 mph - N/A   Clear
1:56 AM 78.1 °F - 73.9 °F 87% 29.68 in 10.0 mi SW 3.5 mph - N/A   Clear
2:56 AM 75.9 °F - 73.9 °F 94% 29.68 in 9.0 mi Calm Calm - N/A   Clear
3:56 AM 77.0 °F - 73.9 °F 90% 29.67 in 10.0 mi WSW 9.2 mph - N/A   Clear
4:56 AM 77.0 °F - 73.9 °F 90% 29.68 in 10.0 mi WSW 5.8 mph - N/A   Clear
5:56 AM 78.1 °F - 73.0 °F 84% 29.68 in 10.0 mi WSW 4.6 mph - N/A   Clear
6:56 AM 80.1 °F 84.5 °F 73.9 °F 81% 29.68 in 10.0 mi West 10.4 mph - N/A   Clear
7:56 AM 84.0 °F 90.2 °F 73.0 °F 69% 29.69 in 10.0 mi West 10.4 mph - N/A   Clear
8:56 AM 84.9 °F 92.1 °F 73.9 °F 69% 29.69 in 10.0 mi West 9.2 mph - N/A   Clear
9:56 AM 86.0 °F 95.1 °F 75.0 °F 70% 29.68 in 10.0 mi WSW 8.1 mph - N/A   Clear
10:56 AM 88.0 °F 96.5 °F 73.9 °F 63% 29.66 in 10.0 mi WSW 13.8 mph 18.4 mph N/A   Clear
11:56 AM 91.0 °F 98.2 °F 72.0 °F 53% 29.66 in 10.0 mi West 13.8 mph 21.9 mph N/A   Partly Cloudy
12:56 PM 91.9 °F 98.4 °F 71.1 °F 50% 29.65 in 10.0 mi WNW 10.4 mph 20.7 mph N/A   Scattered Clouds
1:56 PM 93.0 °F 99.0 °F 70.0 °F 47% 29.66 in 10.0 mi West 13.8 mph 19.6 mph N/A   Scattered Clouds
2:56 PM 93.0 °F 97.9 °F 69.1 °F 45% 29.67 in 10.0 mi WNW 16.1 mph 21.9 mph N/A   Clear
3:56 PM 91.9 °F 96.9 °F 69.1 °F 47% 29.68 in 10.0 mi West 12.7 mph - N/A   Scattered Clouds
4:56 PM 91.9 °F 95.9 °F 68.0 °F 45% 29.70 in 10.0 mi WNW 11.5 mph - N/A   Clear
5:56 PM 89.1 °F 94.1 °F 70.0 °F 53% 29.71 in 10.0 mi NNW 8.1 mph - N/A   Clear
6:56 PM 87.1 °F 90.6 °F 68.0 °F 53% 29.73 in 10.0 mi WNW 6.9 mph - N/A   Clear
7:56 PM 82.9 °F 86.5 °F 69.1 °F 63% 29.75 in 10.0 mi Calm Calm - N/A   Clear
8:56 PM 73.9 °F - 70.0 °F 87% 29.77 in 10.0 mi WSW 3.5 mph - N/A   Clear
9:56 PM 73.9 °F - 69.1 °F 85% 29.80 in 10.0 mi West 5.8 mph - N/A   Overcast
10:56 PM 73.0 °F - 68.0 °F 84% 29.80 in 10.0 mi West 5.8 mph - N/A   Mostly Cloudy